Tracking 19286 objects as of 18-Nov-2018
HD Live streaming from Space Station
objects crossing your sky now

USA 143

Track USA 143 now!
10-day predictions
USA 143 is classified as:


NORAD ID: 25724
Int'l Code: 1999-023A
Perigee: 1,101.6 km
Apogee: 5,158.3 km
Inclination: 28.2 °
Period: 153.6 minutes
Semi major axis: 9500 km
RCS: Unknown
Launch date: April 30, 1999
Source: United States (US)
Launch site: AIR FORCE EASTERN TEST RANGE (AFETR)
aabbcc
Your satellite tracking list
Your tracking list is empty




NASA's NSSDC Master Catalog

Two Line Element Set (TLE):
1 25724U 99023A   18296.99353520 0.00000000  00000-0  00000-0 0    08
2 25724  28.2178 184.9366 2134851  94.4800 265.5195  9.37458570    07
Source of the keplerian elements: McCants